575  
ASUS44 KBMX 240210  
RWRAL  
 
ALABAMA REGIONAL WEATHER ROUNDUP  
NATIONAL WEATHER SERVICE BIRMINGHAM AL  
900 PM CDT SUN JUN 23 2024  
 
NOTE: "FAIR" INDICATES FEW OR NO CLOUDS BELOW 12,000 FEET  
WITH NO SIGNIFICANT WEATHER AND/OR S TO VISIBILITY
.  
 
THE REMARK "TC" DENOTES TEMPERATURE IN DEGREES CELSIUS.  
 
ALZ001>011-014-016>018-020-240300-  
NORTH ALABAMA  
 
CITY SKY/WX TMP DP RH WIND PRES REMARKS
 
MUSCLE SHOALS CLEAR 88 72 58 W7 29.87R HX 94 TC 31  
HUNTSVILLE CLOUDY 88 72 58 W5 29.88R HX 94 TC 31  
DECATUR CLOUDY 88 72 58 SW5 29.88R HX 94 TC 31  
HALEYVILLE MOCLDY 84 72 67 CALM 29.93R TC 29  
GADSDEN PTCLDY 81 71 71 CALM 29.89R TC 27  

 
 
ALZ012-013-022-023-030>036-040>044-240300-  
WEST CENTRAL ALABAMA  
 
CITY SKY/WX TMP DP RH WIND PRES REMARKS
 
TUSCALOOSA CLEAR 83 71 67 CALM 29.87S TC 28  
DEMOPOLIS MOCLDY 82 74 79 CALM 29.88R TC 28  

 
 
ALZ015-024>026-033>036-041>044-240300-  
CENTRAL ALABAMA  
 
CITY SKY/WX TMP DP RH WIND PRES REMARKS
 
BIRMINGHAM PTCLDY 90 64 42 W8 29.91R HX 91 TC 32  
MONTGOMERY CLEAR 82 72 71 SW5 29.88S TC 28  
SHELBY CO ARPT CLEAR 82 67 60 CALM 29.89S TC 28  
MAXWELL AFB CLEAR 85 69 58 CALM 29.86R TC 30  
GREENVILLE CLEAR 80 71 74 CALM 29.90R TC 27  
SELMA CLEAR 81 75 83 CALM 29.88R TC 27  
PRATTVILLE CLEAR 81 68 65 CALM 29.88S TC 27  
BESSEMER CLEAR 84 67 56 SW3 29.91R TC 29  
TALLADEGA CLEAR 84 68 58 SE1 29.87R TC 29  
PELL CITY PTCLDY 81 68 65 CALM 29.89R TC 27  
SYLACAUGA CLOUDY 82 66 58 W3 29.90R TC 28  
JASPER PTCLDY 81 73 78 CALM 29.89R TC 27  

 
 
ALZ019-021-028-029-037-038-045>048-240300-  
EAST CENTRAL ALABAMA  
 
CITY SKY/WX TMP DP RH WIND PRES REMARKS
 
ANNISTON CLEAR 80 67 64 CALM 29.89R TC 27  
ALEXANDER CITY CLEAR 80 65 59 CALM 29.90R TC 27  
AUBURN CLEAR 84 68 58 SW5 29.93R TC 29  

 
 
ALZ051>064-240300-  
SOUTHWEST ALABAMA  
 
CITY SKY/WX TMP DP RH WIND PRES REMARKS
 
MOBILE PTCLDY 83 73 72 S7 29.93R TC 28  
BROOKLEY FIELD CLEAR 84 72 67 VRB3 29.93R TC 29  
EVERGREEN CLEAR 83 71 67 SW3 29.90S TC 28  

 
 
ALZ049-050-065>069-240300-  
SOUTHEAST ALABAMA  
 
CITY SKY/WX TMP DP RH WIND PRES REMARKS
 
DOTHAN CLEAR 87 73 62 SW8 29.94R HX 94 TC 31  
OZARK CLEAR 87 71 57 SW8 N/A HX 92 TC 31  
TROY PTCLDY 78 72 81 CALM 29.91R TC 26  
EUFAULA CLEAR 78 69 73 CALM 29.90R TC 26  

 
 
 
CLICK HERE TO GO TO PREVIOUS BULLETINS.

The Nexlab AL Page Main Text Page